STARLINK-35368

Last updated on Mon Oct 20 2025 00:02:07 GMT+0000 (Coordinated Universal Time)

1 65830U 25221H 25292.25002315 -.01553278 00000+0 -28533-1 0 9996 2 65830 53.1605 27.8323 0001076 82.9098 253.4840 15.51580379 4407
UTC large
Height (km)
Speed (km/s)
/
Latitude / Longitude
Inclination (degrees)
Orbital Period (minutes)
Azimuth
Elevation
Range (km)
Doppler Factor

Next 0 passes for location: London (51.5072 / 0.1276)

Sorry there are no passes over London.